Location: Demmingen
(48.6757°N, 10.4375°E)
Time: 22:40:12
(UTC+00:00)

Resurs 1-3 - Visible Passes

Search period start: 13 January 2026 00:00
Search period end: 23 January 2026 00:00
Orbit: 613 x 615 km, 97.7° (Epoch: 13 January)

Date Brightness Start Highest point End Pass type
(mag) Time Alt. Az. Time Alt. Az. Time Alt. Az.
13 Jan 5.5 06:05:39 10° NNE 06:09:35 34° E 06:13:29 10° SSE visible
13 Jan 3.9 17:02:58 10° SE 17:07:00 41° ENE 17:11:03 10° N visible
13 Jan 5.9 18:39:44 10° SW 18:43:10 23° W 18:46:37 10° NW visible
14 Jan 4.7 06:20:55 10° NNE 06:25:07 48° E 06:29:16 10° S visible
14 Jan 3.5 17:18:10 10° SSE 17:22:23 58° ENE 17:26:38 10° N visible
14 Jan 6.4 18:56:01 10° SW 18:58:46 17° W 19:01:33 10° NW visible
15 Jan 3.4 17:33:30 10° SSE 17:37:48 82° ENE 17:42:08 10° NNW visible
15 Jan 6.8 19:12:53 10° WSW 19:14:24 12° W 19:15:56 10° WNW visible
16 Jan 6.9 05:17:58 10° ENE 05:19:27 11° E 05:20:54 10° ESE visible
16 Jan 3.8 17:48:58 10° S 17:53:15 70° WSW 17:57:34 10° NNW visible
17 Jan 6.6 05:32:20 10° NE 05:35:04 16° E 05:37:48 10° SE visible
17 Jan 4.8 16:29:49 10° ESE 16:33:02 21° ENE 16:36:15 10° NNE visible
17 Jan 4.5 18:04:34 10° S 18:08:44 48° W 18:12:56 10° NNW visible
18 Jan 6.3 05:47:14 10° NE 05:50:41 23° E 05:54:04 10° SE visible
18 Jan 4.4 16:44:40 10° SE 16:48:20 28° ENE 16:52:01 10° N visible
18 Jan 5.2 18:20:21 10° SSW 18:24:15 34° W 18:28:12 10° NNW visible
19 Jan 5.6 06:02:21 10° NNE 06:06:14 32° E 06:10:05 10° SSE visible
19 Jan 4.0 16:59:42 10° SE 17:03:40 38° ENE 17:07:41 10° N visible
19 Jan 5.8 18:36:18 10° SSW 18:39:48 24° W 18:43:21 10° NW visible
20 Jan 4.9 06:17:36 10° NNE 06:21:45 45° E 06:25:52 10° S visible
20 Jan 3.6 17:14:52 10° SSE 17:19:03 54° ENE 17:23:16 10° N visible
20 Jan 6.4 18:52:30 10° SW 18:55:23 18° W 18:58:19 10° NW visible
21 Jan 3.4 17:30:10 10° SSE 17:34:27 77° ENE 17:38:47 10° N visible
21 Jan 6.8 19:09:12 10° WSW 19:11:01 12° W 19:12:51 10° WNW visible
22 Jan 7.1 05:15:01 10° ENE 05:16:02 11° E 05:17:04 10° E visible
22 Jan 3.7 17:45:36 10° S 17:49:53 75° WSW 17:54:13 10° NNW visible
